Buffalo, NY

2:08 AM EDT on October 23, 2019 (GMT -0400)
Buffalo Niagara International

Weather History for KBUF - August, 2019

Change the Weather History Date:

Saturday, August 31, 2019

  Actual Average Record
Temperature  
Mean Temperature 64 °F 67 °F  
Max Temperature 74 °F 76 °F 93 °F (1962)
Min Temperature 54 °F 58 °F 43 °F (1976)
Degree Days  
Heating Degree Days 1 1  
Month to date heating degree days 3 16  
Since 1 June heating degree days 65 91  
Since 1 July heating degree days 3 27  
Cooling Degree Days 0 4  
Month to date cooling degree days 177 161  
Year to date cooling degree days 545 487  
Since 1 June cooling degree days 537 461  
Growing Degree Days 14 (Base 50)    
Moisture  
Dew Point 49 °F    
Average Humidity 62    
Maximum Humidity 83    
Minimum Humidity 40    
Precipitation  
Precipitation 0.00 in 0.10 in 1.98 in (2005)
Month to date precipitation 3.62 3.26  
Year to date precipitation 28.37 25.16  
Snow  
Snow 0.00 in 0.00 in 0.00 in ()
Month to date snowfall 0.0 0.0  
Since 1 June snowfall 0.0 0.0  
Since 1 July snowfall 0.0 0.0  
Snow Depth 0.00 in    
Sea Level Pressure  
Sea Level Pressure 30.28 in    
Wind  
Wind Speed 4 mph (NNE)    
Max Wind Speed 12 mph    
Max Gust Speed 16 mph    
Visibility 10 miles    
Events      
T = Trace of Precipitation, MM = Missing Value Source: NWS Daily Summary

Daily Weather History Graph

Daily Weather History Graph

Search for Another Location

Airport or City:

Astronomy

Aug. 31, 2019 Rise Set
Actual Time 6:38 AM EDT 7:51 PM EDT
Civil Twilight 6:08 AM EDT 8:20 PM EDT
Nautical Twilight 5:33 AM EDT 8:55 PM EDT
Astronomical Twilight 4:56 AM EDT 9:32 PM EDT
Moon 7:52 AM EDT (8/31) 9:01 PM EDT (8/31)
Length of Visible Light 14h 12m
Length of Day
13h 13m
New Moon, 2% of the Moon is Illuminated
Aug 31
New Moon
Sep 5
First Quarter
Sep 14
Full
Sep 21
Last Quarter
Sep 28
New

Hourly Weather History & Observations

Time (EDT) Temp. Dew Point Humidity Pressure Visibility Wind Dir Wind Speed Gust Speed Precip Events Conditions
12:54 AM 59.0 °F 50.0 °F 72% 30.19 in 10.0 mi SE 3.5 mph - N/A   Mostly Cloudy
1:54 AM 59.0 °F 50.0 °F 72% 30.19 in 10.0 mi South 3.5 mph - N/A   Partly Cloudy
2:54 AM 55.0 °F 50.0 °F 83% 30.20 in 10.0 mi South 5.8 mph - N/A   Partly Cloudy
4:54 AM 55.0 °F 48.9 °F 80% 30.22 in 10.0 mi Calm Calm - N/A   Partly Cloudy
5:54 AM 55.9 °F 48.9 °F 77% 30.25 in 10.0 mi NW 3.5 mph - N/A   Partly Cloudy
6:54 AM 55.0 °F 50.0 °F 83% 30.27 in 10.0 mi Calm Calm - N/A   Mostly Cloudy
7:54 AM 60.1 °F 50.0 °F 69% 30.29 in 10.0 mi Calm Calm - N/A   Mostly Cloudy
8:54 AM 63.0 °F 51.1 °F 65% 30.30 in 10.0 mi NNW 6.9 mph - N/A   Scattered Clouds
9:54 AM 64.0 °F 50.0 °F 60% 30.31 in 10.0 mi NNW 3.5 mph - N/A   Mostly Cloudy
10:54 AM 66.0 °F 51.1 °F 59% 30.32 in 10.0 mi Variable 3.5 mph - N/A   Mostly Cloudy
11:54 AM 69.1 °F 51.1 °F 53% 30.32 in 10.0 mi NNW 5.8 mph - N/A   Mostly Cloudy
12:54 PM 68.0 °F 48.9 °F 50% 30.32 in 10.0 mi NW 5.8 mph - N/A   Mostly Cloudy
1:54 PM 70.0 °F 46.9 °F 44% 30.31 in 10.0 mi North 5.8 mph - N/A   Mostly Cloudy
2:54 PM 72.0 °F 46.9 °F 41% 30.30 in 10.0 mi Calm Calm - N/A   Mostly Cloudy
3:54 PM 73.0 °F 48.9 °F 42% 30.30 in 10.0 mi Variable 5.8 mph - N/A   Mostly Cloudy
4:54 PM 71.1 °F 48.9 °F 45% 30.29 in 10.0 mi NW 4.6 mph - N/A   Scattered Clouds
5:54 PM 71.1 °F 46.9 °F 42% 30.30 in 10.0 mi North 6.9 mph - N/A   Scattered Clouds
6:54 PM 69.1 °F 45.0 °F 42% 30.30 in 10.0 mi NNE 6.9 mph - N/A   Scattered Clouds
7:54 PM 64.9 °F 46.0 °F 50% 30.31 in 10.0 mi North 3.5 mph - N/A   Scattered Clouds
8:54 PM 64.0 °F 46.9 °F 54% 30.31 in 10.0 mi NE 4.6 mph - N/A   Mostly Cloudy
9:54 PM 61.0 °F 46.9 °F 60% 30.31 in 10.0 mi NE 5.8 mph - N/A   Scattered Clouds
10:54 PM 61.0 °F 48.0 °F 62% 30.31 in 10.0 mi East 6.9 mph - N/A   Scattered Clouds
11:54 PM 60.1 °F 48.0 °F 64% 30.30 in 10.0 mi ESE 6.9 mph - N/A   Scattered Clouds